Anchorage Merrill, AK

5:52 PM AKDT on April 28, 2017 (GMT -0800)
Merrill

Weather History for PAMR - January, 2014

Change the Weather History Date:

Wednesday, January 22, 2014

  Actual Average Record
Temperature  
Mean Temperature 34 °F -  
Max Temperature 37 °F 22 °F 45 °F (2008)
Min Temperature 32 °F 9 °F -8 °F (1999)
Degree Days  
Heating Degree Days 30    
Moisture  
Dew Point 32 °F    
Average Humidity 88    
Maximum Humidity 93    
Minimum Humidity 81    
Precipitation  
Precipitation 0.09 in - - ()
Sea Level Pressure  
Sea Level Pressure 29.59 in    
Wind  
Wind Speed 2 mph (WNW)    
Max Wind Speed 10 mph    
Max Gust Speed -    
Visibility 10 miles    
Events Rain    
Averages and records for this station are not official NWS values.
T = Trace of Precipitation, MM = Missing Value Source: NWS Daily Summary

Daily Weather History Graph

Daily Weather History Graph

Search for Another Location

Airport or City:

Trip Planner

Search our weather history database for the weather conditions in past years. The results will help you decide how hot, cold, wet, or windy it might be!

Date:

Astronomy

Jan. 22, 2014 Rise Set
Actual Time 9:42 AM AKST 4:40 PM AKST
Civil Twilight 8:49 AM AKST 5:33 PM AKST
Nautical Twilight 7:54 AM AKST 6:28 PM AKST
Astronomical Twilight 7:03 AM AKST 7:19 PM AKST
Moon 12:13 AM AKST (1/22) 10:50 AM AKST (1/22)
Length of Visible Light 8h 43m
Length of Day
6h 57m
Waning Gibbous, 64% of the Moon is Illuminated
Jan 22
Waning Gibbous
Jan 23
Last Quarter
Jan 30
New
Feb 6
First Quarter
Feb 14
Full

Hourly Weather History & Observations

Time (AKST) Temp. Windchill Dew Point Humidity Pressure Visibility Wind Dir Wind Speed Gust Speed Precip Events Conditions
12:53 AM 36.0 °F 33.3 °F 32.0 °F 86% 29.69 in 10.0 mi NE 3.5 mph - N/A   Mostly Cloudy
1:53 AM 34.0 °F - 28.9 °F 82% 29.70 in 10.0 mi Calm Calm - N/A   Mostly Cloudy
3:53 AM 33.1 °F - 28.9 °F 85% 29.69 in 10.0 mi Calm Calm - N/A   Overcast
4:53 AM 33.1 °F - 28.9 °F 85% 29.68 in 10.0 mi Calm Calm - N/A   Overcast
5:53 AM 32.0 °F - 28.9 °F 88% 29.67 in 10.0 mi Calm Calm - N/A   Overcast
6:53 AM 33.1 °F - 30.0 °F 89% 29.65 in 10.0 mi Calm Calm - N/A   Overcast
7:53 AM 33.1 °F 30.0 °F 30.0 °F 89% 29.61 in 10.0 mi West 3.5 mph - N/A   Mostly Cloudy
8:53 AM 34.0 °F - 28.9 °F 82% 29.60 in 10.0 mi Calm Calm - N/A   Mostly Cloudy
9:00 AM 33.8 °F - 28.4 °F 81% 29.60 in 10.0 mi Calm Calm - N/A   Mostly Cloudy
9:53 AM 33.1 °F 30.0 °F 30.9 °F 92% 29.61 in 10.0 mi ESE 3.5 mph - N/A   Mostly Cloudy
10:53 AM 36.0 °F - 33.1 °F 89% 29.60 in 10.0 mi Calm Calm - N/A   Mostly Cloudy
11:53 AM 36.0 °F 33.3 °F 33.1 °F 89% 29.60 in 10.0 mi Variable 3.5 mph - N/A   Overcast
12:53 PM 37.0 °F 32.4 °F 32.0 °F 82% 29.57 in 10.0 mi North 5.8 mph - N/A   Overcast
1:53 PM 36.0 °F 32.1 °F 32.0 °F 86% 29.54 in 10.0 mi NNW 4.6 mph - N/A   Mostly Cloudy
2:53 PM 36.0 °F 32.1 °F 32.0 °F 86% 29.53 in 10.0 mi WNW 4.6 mph - N/A   Overcast
3:53 PM 36.0 °F 31.1 °F 33.1 °F 89% 29.53 in 10.0 mi WNW 5.8 mph - N/A   Mostly Cloudy
4:53 PM 36.0 °F 30.3 °F 33.1 °F 89% 29.55 in 10.0 mi West 6.9 mph - N/A   Overcast
5:53 PM 36.0 °F - 33.1 °F 89% 29.56 in 10.0 mi Calm Calm - 0.00 in Rain Light Rain
6:53 PM 37.0 °F 31.6 °F 34.0 °F 89% 29.55 in 10.0 mi WNW 6.9 mph - 0.00 in Rain Light Rain
7:53 PM 36.0 °F 33.3 °F 33.1 °F 89% 29.55 in 10.0 mi West 3.5 mph - 0.01 in   Overcast
8:53 PM 37.0 °F 29.8 °F 33.1 °F 86% 29.55 in 10.0 mi WNW 10.4 mph - 0.00 in Rain Light Rain
9:35 PM 35.6 °F 30.7 °F 33.8 °F 93% 29.54 in 10.0 mi West 5.8 mph - 0.00 in Rain Light Rain
9:53 PM 36.0 °F - 34.0 °F 93% 29.55 in 10.0 mi Calm Calm - 0.00 in Rain Light Rain
10:53 PM 35.1 °F - 33.1 °F 92% 29.56 in 6.0 mi Calm Calm - 0.03 in Rain Light Rain
11:53 PM 36.0 °F - 34.0 °F 93% 29.56 in 5.0 mi Calm Calm - 0.05 in Rain Light Rain